Dewpoint
9 9 9 8 8 8 8 8 9 10 9 9 9 9 9 8 5 3 3 3 2 0 -1 -2 -0 0 1 1 0 1 0 -0 -1 -2 0 4 4 3
9 9 7 9 8 8 9 9 10 10 10 9 10 9 9 7 3 4 3 3 1 -1 -2 -1 0 1 1 0 0 0 -0 -1 -1 1 3 4 4 4
9 9 9 9 9 9 10 10 10 10 9 9 8 9 7 3 3 3 3 1 -0 -1 -1 -1 0 1 1 0 0 -0 -1 -2 2 3 3 4 4 4
9 8 8 8 9 9 9 9 10 8 9 9 9 7 2 3 3 3 2 1 -1 -1 -1 -1 -0 1 0 -0 -0 -0 -1 -2 3 4 5 5 5 3
7 9 8 9 9 9 9 9 10 9 9 9 6 2 2 3 3 2 1 -0 -0 -1 -1 -0 -0 -0 -0 -0 -0 -1 -1 -1 4 4 5 4 5 3
9 9 9 9 9 9 9 9 9 9 9 5 2 2 3 2 1 0 -0 -0 -0 -1 -1 -0 -0 0 0 -0 -1 -1 -1 -1 4 5 6 6 6 5
9 8 8 8 9 9 9 9 9 8 5 3 3 3 1 0 -1 -1 -1 -1 -1 -1 -1 -1 -0 -0 -1 -1 -1 -1 -1 -2 4 4 5 5 5 5
7 6 9 7 8 9 9 9 8 7 4 3 2 0 -0 -1 -1 -1 -1 -1 -1 -1 -1 -0 -0 -0 -1 -1 -1 -1 -1 -5 4 4 5 5 5 5
7 8 9 9 9 9 8 8 6 4 3 1 0 -0 -1 -1 -1 -1 -1 -1 -1 -1 -1 -1 -1 -1 -1 -1 -1 -1 -1 -7 -0 4 4 5 3 2
9 9 8 8 8 8 7 5 3 2 1 0 0 -1 -1 -1 -1 -1 -1 -1 -1 -1 -1 -1 -1 -1 -1 -1 -1 -2 -2 -11 -10 3 3 4 3 4
7 8 7 7 7 6 5 4 4 2 4 4 -1 -1 -1 -1 -1 -1 -1 -1 -1 -1 -1 -1 -1 -1 -2 -6 -5 -2 -4 -17 -16 -5 3 3 4 4
7 7 7 6 5 4 3 3 4 5 2 -1 -1 -1 -1 -1 -1 -1 -1 -1 -1 -1 -1 -1 -1 -1 -7 -11 -17 -18 -9 -20 -21 -21 -2 2 3 3
7 7 6 4 4 4 4 5 3 1 -0 -0 -1 -1 -1 -1 -1 -1 -2 -2 -2 -1 -1 -1 -1 -2 -3 -11 -16 -18 -20 -21 -23 -24 -23 -4 1 2
6 5 5 4 4 4 3 3 3 -0 -0 -1 -1 -1 -1 -1 -1 -2 -3 -5 -6 -4 -2 -2 -2 -2 -4 -5 -19 -21 -21 -22 -22 -23 -26 -20 -6 0
5 5 4 3 3 2 1 1 0 1 -0 -1 -2 -2 -2 -2 -3 -7 -13 -17 -17 -16 -15 -12 -8 -9 -10 -8 -18 -19 -17 -21 -19 -19 -21 -25 -27 -21
3 3 3 2 2 1 1 1 1 0 -1 -1 -2 -3 -3 -6 -12 -16 -18 -20 -20 -19 -19 -17 -16 -15 -14 -12 -17 -18 -17 -16 -19 -19 -18 -18 -19 -21
2 2 2 1 1 1 1 0 0 1 -0 -2 -3 -5 -8 -13 -16 -18 -20 -21 -21 -20 -20 -20 -19 -19 -17 -17 -18 -18 -16 -16 -15 -16 -16 -17 -18 -17
1 1 2 1 1 1 1 1 1 -0 -1 -0 -4 -7 -10 -13 -17 -18 -19 -20 -21 -20 -20 -19 -19 -19 -19 -19 -20 -20 -18 -16 -16 -16 -15 -14 -14 -14
0 1 1 1 1 1 1 0 0 1 -0 -1 -2 -5 -7 -10 -17 -18 -19 -20 -19 -19 -18 -18 -17 -17 -17 -16 -15 -16 -16 -16 -16 -16 -16 -16 -16 -15
-1 -0 0 0 1 1 1 0 -0 -0 -1 -1 -2 -4 -3 -13 -17 -17 -17 -18 -18 -18 -17 -18 -18 -17 -16 -15 -15 -16 -16 -17 -17 -18 -18 -18 -18 -18
-1 -1 -1 -0 -1 -0 -0 -0 -0 -1 -1 -1 -2 -3 -3 -9 -15 -16 -18 -17 -17 -17 -19 -20 -18 -17 -17 -17 -16 -16 -15 -16 -17 -17 -18 -19 -20 -20
-2 -2 -1 -1 -1 -1 -1 -1 -1 -1 -1 -1 -2 -2 -3 -4 -8 -17 -18 -19 -19 -20 -19 -19 -20 -20 -19 -19 -18 -18 -18 -18 -19 -21 -21 -22 -21 -23
-2 -2 -2 -2 -2 -2 -2 -2 -2 -2 -2 -1 -2 -2 -3 -4 -13 -15 -16 -17 -17 -16 -16 -16 -16 -17 -16 -16 -16 -17 -16 -15 -16 -15 -14 -12 -11 -11
Wind_Speed
29 26 24 24 22 25 30 30 27 27 30 28 25 25 23 24 21 19 18 18 18 20 21 20 17 18 16 17 18 17 19 22 23 19 20 18 16 16
29 30 28 26 27 30 32 29 28 29 29 24 26 24 22 21 20 19 19 17 20 21 21 17 17 17 17 16 16 17 19 22 15 17 18 16 13 13
24 25 27 29 34 32 31 33 28 26 25 24 24 22 21 20 19 19 17 21 20 20 19 18 16 15 15 14 15 17 19 15 13 20 17 13 11 12
25 27 31 32 32 32 33 35 35 23 25 22 24 18 20 18 18 20 21 20 19 19 18 16 14 15 14 13 13 15 18 12 12 18 17 15 12 8
30 33 32 34 33 30 28 25 28 27 26 24 17 17 18 19 20 20 20 20 19 17 16 14 13 13 13 12 13 16 17 6 9 10 12 15 9 6
25 24 27 29 32 31 29 24 24 25 22 17 19 18 19 18 19 20 19 18 17 15 13 11 12 11 12 11 12 14 13 1 6 4 10 13 9 7
30 34 36 33 32 38 34 32 30 20 18 20 19 21 19 18 18 18 18 18 15 12 11 11 9 10 11 10 11 13 14 2 2 5 4 7 10 11
28 29 30 29 35 29 26 32 22 20 20 19 20 18 18 18 17 18 18 15 11 10 10 7 7 9 9 10 11 12 10 4 5 8 7 2 5 5
27 31 28 31 24 23 22 22 21 19 20 18 17 19 18 16 16 17 15 14 11 11 9 8 7 8 9 9 10 12 9 4 8 5 9 6 13 16
21 21 21 20 24 21 20 18 18 18 17 16 18 18 17 15 15 15 14 14 11 9 9 8 7 7 9 11 14 14 7 5 9 9 8 11 17 13
16 18 19 19 20 19 19 19 18 19 15 17 19 18 17 16 16 15 14 13 10 9 8 8 7 7 11 13 10 8 6 6 9 12 10 9 11 10
17 19 19 19 19 19 18 18 17 16 17 19 17 15 14 14 13 13 13 13 12 9 10 9 8 6 4 2 3 3 6 6 9 12 15 14 12 12
20 20 21 20 22 23 22 20 16 18 22 20 18 17 16 15 15 15 15 15 15 14 10 9 8 8 8 6 5 5 5 7 7 11 14 16 14 14
23 22 21 22 23 24 22 20 24 23 24 20 18 18 17 16 16 15 14 14 14 14 15 15 15 12 11 8 5 4 3 7 8 10 11 14 14 15
24 24 23 24 25 25 23 23 25 24 25 22 19 17 15 16 16 15 14 13 13 13 13 14 14 11 9 8 5 4 4 8 9 9 10 10 11 14
23 24 25 27 27 26 25 26 27 24 22 17 16 17 18 17 17 16 15 14 14 14 13 12 11 10 9 10 8 8 7 5 9 10 10 10 11 12
24 26 28 30 30 30 29 28 27 25 26 23 22 20 17 18 18 17 16 16 15 14 13 12 11 11 11 10 10 10 10 10 8 7 8 10 11 11
26 30 33 33 34 34 33 33 32 31 27 24 24 20 20 19 18 18 17 16 15 14 13 12 11 10 9 9 11 12 13 12 12 10 9 9 9 9
28 32 35 36 37 37 37 37 36 32 29 28 26 21 20 20 20 19 17 16 15 15 15 13 12 10 9 9 9 11 12 12 10 10 10 10 10 11
29 33 35 36 38 39 38 37 35 33 32 31 26 26 23 22 21 20 18 16 16 16 15 14 12 10 11 12 12 11 11 10 9 10 10 9 9 10
29 32 36 37 34 36 38 35 34 34 34 34 30 30 24 24 22 20 18 17 17 17 14 12 10 14 14 13 12 12 13 11 11 12 11 10 10 10
28 30 30 36 36 33 31 29 30 33 34 31 30 29 27 24 21 20 20 20 18 14 11 14 14 13 13 12 11 12 12 12 11 10 9 9 7 5
23 24 27 29 29 28 29 25 26 29 31 30 31 29 26 22 22 21 20 19 17 16 16 16 15 14 13 12 11 11 11 11 11 10 10 10 10 10
Wind_Direction
232 233 238 245 245 247 255 263 263 260 253 246 242 249 245 251 256 262 270 279 287 294 297 301 291 289 291 297 303 305 310 318 321 322 320 319 309 298
231 234 239 235 244 259 264 262 259 253 250 253 253 250 248 247 250 258 266 283 289 293 298 295 285 282 291 302 304 309 317 324 325 325 330 323 311 300
230 236 243 250 259 265 264 259 253 246 241 248 254 246 246 244 252 261 277 279 286 296 295 291 285 286 293 298 309 313 321 329 334 335 338 330 313 300
237 257 262 268 270 271 270 266 254 242 244 238 242 229 234 245 258 264 270 281 287 293 295 291 289 287 293 304 313 317 325 331 348 350 350 345 318 305
257 257 262 267 265 264 275 268 250 233 239 231 229 233 239 247 255 264 270 281 291 295 294 287 286 286 299 306 313 317 325 331 359 7 354 355 348 327
246 258 267 256 265 267 261 258 249 249 230 223 226 234 242 250 256 264 273 282 283 287 292 288 289 289 292 297 305 311 315 330 10 40 36 47 24 15
263 273 271 273 265 272 256 249 255 230 222 224 231 238 241 247 258 265 271 276 279 284 286 281 279 278 285 298 302 308 310 204 71 59 115 54 56 65
273 273 266 257 270 252 233 240 223 221 228 234 241 246 253 256 260 268 271 271 266 281 278 267 264 274 284 294 296 298 304 214 174 72 72 63 51 55
251 260 259 255 242 233 223 217 219 216 224 235 245 253 256 262 265 267 269 266 268 263 266 264 265 275 283 284 287 296 289 233 189 124 92 120 107 112
251 255 251 246 243 233 232 218 218 225 233 243 252 255 259 260 264 265 262 260 262 261 259 266 264 275 286 291 285 280 259 220 202 183 137 142 126 130
265 251 242 243 246 239 229 223 216 226 242 255 258 256 262 264 266 258 253 256 256 251 251 263 269 281 288 286 279 259 239 213 205 198 194 153 142 163
254 258 253 246 244 236 227 228 238 242 247 251 252 256 263 260 252 246 248 249 250 254 258 254 265 284 295 272 4 268 229 217 211 208 205 192 171 188
248 251 252 249 243 241 239 247 243 250 248 244 251 256 253 249 245 244 248 249 249 244 246 254 250 262 266 290 291 296 249 214 208 211 213 205 197 202
251 250 244 240 240 246 244 246 239 243 247 243 246 246 243 240 240 242 243 245 246 243 239 246 251 259 272 250 262 235 244 214 197 198 203 205 209 207
255 249 239 240 245 244 242 237 241 239 243 237 239 240 235 232 234 237 239 240 242 244 246 246 248 255 246 238 242 210 215 218 203 191 191 198 207 213
256 247 240 238 240 243 241 239 243 240 237 238 233 233 231 234 235 235 236 237 240 239 239 241 242 239 227 229 224 223 219 214 211 203 189 188 200 208
264 253 245 240 237 237 236 235 240 238 232 227 228 231 232 235 233 234 235 233 233 235 233 232 230 230 229 228 220 218 222 217 200 192 190 194 203 207
255 253 251 247 245 242 240 239 236 234 231 231 229 228 231 232 231 231 230 230 227 225 224 221 220 217 220 224 222 219 221 219 217 220 219 212 221 223
257 253 253 251 249 246 244 241 239 236 233 231 228 228 228 228 227 225 224 227 224 222 221 218 215 209 208 217 216 214 221 223 221 226 233 228 227 232
255 258 258 256 252 249 248 246 243 238 232 230 226 225 224 225 225 223 224 224 220 219 218 217 216 214 215 218 218 218 212 217 214 222 229 234 234 246
271 259 261 260 258 256 252 250 246 239 233 231 222 223 219 219 222 222 220 219 217 216 215 213 210 215 220 218 213 213 215 224 231 238 245 251 253 254
279 270 264 261 260 260 258 250 245 239 236 234 228 223 220 215 215 221 219 219 219 215 208 213 218 221 222 220 216 216 224 232 237 240 243 249 247 241
287 276 270 267 266 263 257 254 245 236 233 228 222 220 217 210 213 216 218 219 219 212 212 218 220 219 217 217 217 218 224 236 244 246 247 252 253 254
Height
1519 1522 1524 1524 1526 1527 1530 1529 1529 1529 1527 1528 1528 1527 1529 1532 1533 1534 1533 1534 1532 1531 1529 1526 1524 1523 1521 1519 1516 1513 1509 1507 1504 1501 1498 1495 1493 1491
1512 1514 1516 1518 1520 1521 1522 1523 1522 1520 1520 1522 1521 1523 1525 1528 1529 1530 1529 1528 1528 1526 1523 1520 1519 1518 1518 1515 1514 1512 1508 1504 1502 1497 1495 1491 1489 1488
1506 1509 1512 1513 1514 1513 1515 1515 1515 1515 1513 1514 1516 1519 1521 1523 1524 1525 1523 1524 1522 1520 1518 1516 1513 1515 1514 1512 1511 1510 1504 1500 1499 1496 1492 1489 1487 1486
1500 1504 1505 1506 1506 1507 1508 1507 1506 1505 1509 1507 1510 1511 1515 1518 1519 1520 1519 1519 1517 1515 1514 1512 1509 1510 1510 1509 1506 1505 1502 1499 1497 1495 1490 1487 1486 1483
1494 1497 1497 1499 1499 1500 1500 1499 1498 1498 1500 1502 1504 1508 1510 1512 1513 1514 1514 1514 1513 1510 1507 1507 1505 1506 1507 1506 1504 1503 1501 1498 1496 1495 1491 1488 1486 1484
1486 1488 1490 1490 1492 1492 1492 1494 1494 1494 1494 1497 1500 1502 1505 1507 1507 1509 1508 1509 1507 1505 1504 1505 1505 1504 1504 1502 1501 1499 1497 1494 1496 1492 1491 1490 1488 1483
1478 1480 1481 1482 1482 1483 1483 1485 1487 1488 1489 1493 1495 1498 1499 1499 1500 1501 1503 1503 1502 1500 1498 1499 1500 1502 1500 1499 1499 1499 1496 1493 1494 1493 1492 1493 1491 1489
1468 1469 1471 1472 1474 1472 1474 1475 1478 1481 1486 1486 1491 1493 1494 1495 1496 1496 1498 1497 1497 1496 1495 1497 1496 1498 1498 1498 1498 1496 1494 1492 1494 1493 1493 1493 1492 1492
1460 1465 1466 1467 1467 1467 1469 1470 1474 1476 1481 1482 1484 1488 1488 1489 1490 1491 1492 1493 1491 1492 1494 1496 1496 1496 1495 1494 1494 1493 1494 1491 1493 1494 1495 1496 1492 1494
1458 1459 1461 1462 1463 1464 1466 1467 1471 1473 1476 1477 1479 1483 1484 1483 1483 1486 1488 1488 1487 1488 1490 1490 1492 1492 1492 1491 1490 1487 1489 1488 1493 1494 1496 1495 1494 1496
1457 1458 1458 1460 1462 1463 1462 1464 1464 1468 1469 1472 1475 1477 1478 1478 1479 1482 1483 1485 1485 1486 1486 1488 1488 1489 1489 1487 1485 1485 1485 1485 1488 1491 1495 1495 1496 1496
1452 1454 1456 1456 1457 1458 1459 1461 1464 1463 1464 1468 1470 1472 1471 1474 1475 1478 1478 1479 1481 1483 1484 1486 1485 1488 1487 1485 1484 1483 1483 1485 1485 1488 1492 1493 1496 1498
1446 1448 1450 1452 1454 1454 1456 1457 1458 1461 1463 1463 1464 1466 1467 1467 1470 1472 1474 1477 1477 1479 1481 1483 1483 1484 1486 1485 1481 1482 1483 1482 1485 1487 1490 1490 1493 1496
1440 1442 1444 1445 1447 1449 1450 1452 1455 1455 1458 1458 1459 1460 1461 1463 1465 1467 1469 1471 1472 1474 1475 1477 1479 1478 1482 1480 1479 1478 1479 1484 1484 1486 1487 1487 1489 1493
1436 1436 1438 1439 1441 1441 1443 1445 1447 1449 1452 1452 1454 1456 1458 1459 1460 1462 1465 1466 1468 1470 1472 1474 1473 1472 1477 1476 1479 1478 1477 1483 1484 1485 1485 1485 1487 1491
1430 1431 1432 1432 1433 1434 1436 1439 1440 1443 1445 1447 1449 1451 1453 1454 1457 1458 1458 1460 1464 1466 1467 1469 1470 1471 1471 1474 1475 1476 1478 1481 1482 1482 1483 1484 1487 1489
1426 1425 1425 1425 1425 1428 1429 1430 1433 1436 1438 1440 1443 1445 1447 1450 1452 1453 1455 1457 1459 1461 1463 1464 1465 1467 1468 1471 1472 1474 1478 1480 1480 1480 1481 1483 1485 1487
1416 1417 1417 1417 1419 1419 1420 1423 1425 1428 1433 1434 1438 1439 1442 1444 1446 1448 1451 1454 1455 1456 1460 1460 1462 1463 1465 1468 1469 1473 1475 1477 1477 1478 1480 1481 1483 1485
1406 1407 1408 1409 1410 1410 1413 1415 1418 1421 1424 1428 1431 1433 1437 1439 1440 1443 1446 1450 1451 1453 1455 1457 1458 1458 1460 1464 1469 1471 1473 1474 1474 1475 1477 1479 1481 1482
1399 1397 1398 1398 1399 1402 1404 1406 1410 1413 1417 1420 1423 1427 1429 1432 1435 1438 1442 1445 1446 1450 1451 1452 1453 1455 1458 1464 1467 1469 1470 1471 1472 1473 1475 1477 1478 1479
1391 1389 1389 1389 1390 1392 1395 1397 1401 1405 1408 1411 1415 1419 1422 1426 1430 1433 1437 1440 1443 1445 1446 1447 1450 1452 1457 1462 1464 1465 1467 1467 1469 1470 1472 1474 1475 1476
1382 1381 1380 1381 1382 1384 1387 1389 1392 1396 1399 1404 1408 1412 1416 1419 1424 1428 1432 1435 1438 1441 1443 1443 1446 1450 1454 1458 1461 1462 1463 1464 1465 1467 1469 1470 1472 1473
1375 1375 1375 1375 1375 1376 1379 1381 1384 1387 1391 1395 1400 1405 1410 1413 1419 1423 1427 1430 1434 1437 1438 1440 1443 1447 1451 1454 1457 1458 1460 1461 1462 1463 1465 1466 1467 1468